• In Deutschland
  • Länderverzeichnis
  • Für 7 Tage
  • Wassertemperatur
  • Satellitenkarten
  • Wetterkarte
  • Widgets
  • user-avatar
    Anmelden

    Stündliche Wetter Gjirokaster

    Heute, 21 Oktober, Sonntag

    Zeit Temperatur Niederschläge Wind Luftdruck Luftfeuchtigkeit
    00:00 +9°C° 0 mm 2 m/S 653 mmHg 72%
    01:00 +8°C° 0 mm 2 m/S 653 mmHg 72%
    02:00 +8°C° 0 mm 2 m/S 653 mmHg 73%
    03:00 +8°C° 0 mm 2 m/S 652 mmHg 73%
    04:00 +8°C° 0 mm 2 m/S 652 mmHg 73%
    05:00 +8°C° 0 mm 2 m/S 652 mmHg 71%
    06:00 +8°C° 0 mm 2 m/S 652 mmHg 70%
    07:00 +9°C° 0 mm 2 m/S 652 mmHg 69%
    08:00 +12°C° 0.1 mm 2 m/S 652 mmHg 66%
    09:00 +13°C° 0.1 mm 2 m/S 653 mmHg 63%
    10:00 +14°C° 0.1 mm 1 m/S 653 mmHg 61%
    11:00 +14°C° 0.3 mm 1 m/S 653 mmHg 60%
    12:00 +14°C° 0.3 mm 2 m/S 653 mmHg 59%
    13:00 +15°C° 0.3 mm 2 m/S 653 mmHg 58%
    14:00 +14°C° 0.5 mm 2 m/S 652 mmHg 61%
    15:00 +13°C° 0.5 mm 2 m/S 652 mmHg 63%
    16:00 +13°C° 0.5 mm 2 m/S 652 mmHg 66%
    17:00 +12°C° 0.2 mm 1 m/S 652 mmHg 70%
    18:00 +11°C° 0.2 mm 1 m/S 652 mmHg 75%
    19:00 +10°C° 0.2 mm 1 m/S 652 mmHg 79%
    20:00 +10°C° 0.1 mm 1 m/S 652 mmHg 80%
    21:00 +10°C° 0.1 mm 1 m/S 652 mmHg 81%
    22:00 +9°C° 0.1 mm 1 m/S 652 mmHg 82%
    23:00 +9°C° 0 mm 1 m/S 652 mmHg 83%

    Morgen, 22 Oktober, Montag

    Zeit Temperatur Niederschläge Wind Luftdruck Luftfeuchtigkeit
    00:00 +8°C° 0 mm 2 m/S 652 mmHg 84%
    01:00 +8°C° 0 mm 2 m/S 652 mmHg 85%
    02:00 +7°C° 0.1 mm 2 m/S 652 mmHg 85%
    03:00 +7°C° 0.1 mm 2 m/S 651 mmHg 85%
    04:00 +7°C° 0.1 mm 3 m/S 651 mmHg 85%
    05:00 +7°C° 0.1 mm 3 m/S 651 mmHg 83%
    06:00 +8°C° 0.1 mm 3 m/S 651 mmHg 82%
    07:00 +8°C° 0.1 mm 3 m/S 652 mmHg 80%
    08:00 +9°C° 0.1 mm 3 m/S 652 mmHg 73%
    09:00 +10°C° 0.1 mm 3 m/S 652 mmHg 66%
    10:00 +12°C° 0.1 mm 4 m/S 653 mmHg 59%
    11:00 +12°C° 0.2 mm 4 m/S 652 mmHg 59%
    12:00 +12°C° 0.2 mm 4 m/S 652 mmHg 58%
    13:00 +12°C° 0.2 mm 4 m/S 652 mmHg 57%
    14:00 +11°C° 1 mm 4 m/S 652 mmHg 64%
    15:00 +10°C° 1 mm 4 m/S 651 mmHg 71%
    16:00 +8°C° 1 mm 4 m/S 651 mmHg 79%
    17:00 +9°C° 1 mm 3 m/S 651 mmHg 81%
    18:00 +8°C° 1 mm 3 m/S 651 mmHg 83%
    19:00 +8°C° 1 mm 3 m/S 651 mmHg 85%
    20:00 +8°C° 0.4 mm 3 m/S 651 mmHg 85%
    21:00 +8°C° 0.4 mm 3 m/S 651 mmHg 84%
    22:00 +8°C° 0.4 mm 3 m/S 651 mmHg 83%
    23:00 +7°C° 0.1 mm 3 m/S 651 mmHg 83%

    übermorgen, 23 Oktober, Dienstag

    Zeit Temperatur Niederschläge Wind Luftdruck Luftfeuchtigkeit
    00:00 +7°C° 0.1 mm 3 m/S 650 mmHg 82%
    01:00 +7°C° 0.1 mm 3 m/S 650 mmHg 82%
    02:00 +7°C° 0.2 mm 3 m/S 650 mmHg 82%
    03:00 +7°C° 0.2 mm 3 m/S 650 mmHg 82%
    04:00 +7°C° 0.2 mm 3 m/S 649 mmHg 82%
    05:00 +7°C° 0.4 mm 3 m/S 650 mmHg 82%
    06:00 +7°C° 0.4 mm 3 m/S 650 mmHg 81%
    07:00 +7°C° 0.4 mm 3 m/S 650 mmHg 81%
    08:00 +8°C° 0.2 mm 3 m/S 650 mmHg 76%
    09:00 +9°C° 0.2 mm 3 m/S 651 mmHg 71%
    10:00 +10°C° 0.2 mm 3 m/S 651 mmHg 66%
    11:00 +10°C° 0 mm 3 m/S 651 mmHg 62%
    12:00 +11°C° 0 mm 3 m/S 651 mmHg 57%
    13:00 +13°C° 0 mm 2 m/S 651 mmHg 53%
    14:00 +13°C° 0 mm 2 m/S 651 mmHg 55%
    15:00 +13°C° 0 mm 2 m/S 651 mmHg 56%
    16:00 +13°C° 0 mm 2 m/S 651 mmHg 58%
    17:00 +10°C° 0 mm 2 m/S 651 mmHg 61%
    18:00 +9°C° 0 mm 2 m/S 651 mmHg 64%
    19:00 +8°C° 0 mm 2 m/S 651 mmHg 67%
    20:00 +8°C° 0 mm 2 m/S 651 mmHg 68%
    21:00 +7°C° 0 mm 2 m/S 651 mmHg 70%
    22:00 +7°C° 0 mm 2 m/S 651 mmHg 71%
    23:00 +6°C° 0 mm 2 m/S 650 mmHg 71%

    24 Oktober, Mittwoch

    Zeit Temperatur Niederschläge Wind Luftdruck Luftfeuchtigkeit
    00:00 +6°C° 0 mm 2 m/S 650 mmHg 72%
    01:00 +6°C° 0 mm 2 m/S 650 mmHg 73%
    02:00 +6°C° 0 mm 2 m/S 649 mmHg 73%
    03:00 +5°C° 0 mm 2 m/S 649 mmHg 74%
    04:00 +5°C° 0 mm 2 m/S 649 mmHg 74%
    05:00 +5°C° 0 mm 2 m/S 649 mmHg 73%
    06:00 +6°C° 0 mm 2 m/S 649 mmHg 72%
    07:00 +6°C° 0 mm 2 m/S 649 mmHg 71%
    08:00 +8°C° 0 mm 3 m/S 649 mmHg 63%
    09:00 +10°C° 0 mm 3 m/S 649 mmHg 55%
    10:00 +12°C° 0 mm 4 m/S 650 mmHg 46%
    11:00 +13°C° 0 mm 4 m/S 649 mmHg 45%
    12:00 +13°C° 0 mm 5 m/S 649 mmHg 43%
    13:00 +14°C° 0 mm 5 m/S 648 mmHg 42%
    14:00 +13°C° 0 mm 5 m/S 648 mmHg 46%
    15:00 +11°C° 0 mm 6 m/S 648 mmHg 49%
    16:00 +10°C° 0 mm 6 m/S 647 mmHg 53%
    17:00 +9°C° 0 mm 5 m/S 647 mmHg 58%
    18:00 +7°C° 0 mm 5 m/S 647 mmHg 63%
    19:00 +6°C° 0 mm 4 m/S 647 mmHg 67%
    20:00 +6°C° 0 mm 4 m/S 648 mmHg 68%
    21:00 +6°C° 0 mm 4 m/S 648 mmHg 69%
    22:00 +5°C° 0 mm 4 m/S 648 mmHg 69%
    23:00 +5°C° 0 mm 4 m/S 648 mmHg 73%

    25 Oktober, Donnerstag

    Zeit Temperatur Niederschläge Wind Luftdruck Luftfeuchtigkeit
    00:00 +5°C° 0 mm 4 m/S 649 mmHg 77%
    01:00 +5°C° 0 mm 4 m/S 649 mmHg 81%
    02:00 +5°C° 0 mm 4 m/S 649 mmHg 81%
    03:00 +3°C° 0 mm 5 m/S 649 mmHg 81%
    04:00 +3°C° 0 mm 5 m/S 649 mmHg 81%
    05:00 +3°C° 0 mm 5 m/S 649 mmHg 79%
    06:00 +3°C° 0 mm 5 m/S 650 mmHg 76%
    07:00 +2°C° 0 mm 5 m/S 650 mmHg 74%
    08:00 +5°C° 0 mm 4 m/S 651 mmHg 63%
    09:00 +7°C° 0 mm 4 m/S 651 mmHg 52%
    10:00 +10°C° 0 mm 4 m/S 652 mmHg 40%
    11:00 +10°C° 0 mm 4 m/S 652 mmHg 36%
    12:00 +11°C° 0 mm 4 m/S 652 mmHg 32%
    13:00 +12°C° 0 mm 5 m/S 652 mmHg 28%
    14:00 +11°C° 0 mm 4 m/S 652 mmHg 31%
    15:00 +11°C° 0 mm 4 m/S 652 mmHg 33%
    16:00 +10°C° 0 mm 4 m/S 652 mmHg 36%
    17:00 +8°C° 0 mm 4 m/S 652 mmHg 37%
    18:00 +6°C° 0 mm 4 m/S 652 mmHg 38%
    19:00 +5°C° 0 mm 3 m/S 652 mmHg 40%
    20:00 +4°C° 0 mm 3 m/S 652 mmHg 39%
    21:00 +4°C° 0 mm 3 m/S 652 mmHg 39%
    22:00 +4°C° 0 mm 3 m/S 653 mmHg 39%
    23:00 +4°C° 0 mm 3 m/S 653 mmHg 39%

    26 Oktober, Freitag

    Zeit Temperatur Niederschläge Wind Luftdruck Luftfeuchtigkeit
    00:00 +5°C° 0 mm 2 m/S 653 mmHg 39%
    01:00 +4°C° 0 mm 2 m/S 653 mmHg 39%
    02:00 +4°C° 0 mm 2 m/S 653 mmHg 39%
    03:00 +4°C° 0 mm 2 m/S 653 mmHg 39%
    04:00 +4°C° 0 mm 2 m/S 653 mmHg 39%
    05:00 +5°C° 0 mm 2 m/S 653 mmHg 39%
    06:00 +5°C° 0 mm 2 m/S 653 mmHg 40%
    07:00 +5°C° 0 mm 2 m/S 653 mmHg 41%
    08:00 +8°C° 0 mm 2 m/S 654 mmHg 37%
    09:00 +10°C° 0 mm 2 m/S 655 mmHg 34%
    10:00 +13°C° 0 mm 2 m/S 655 mmHg 31%
    11:00 +14°C° 0 mm 2 m/S 655 mmHg 32%
    12:00 +14°C° 0 mm 2 m/S 655 mmHg 33%
    13:00 +14°C° 0 mm 3 m/S 655 mmHg 35%
    14:00 +13°C° 0 mm 3 m/S 655 mmHg 40%
    15:00 +13°C° 0 mm 2 m/S 655 mmHg 45%
    16:00 +13°C° 0 mm 2 m/S 655 mmHg 50%
    17:00 +10°C° 0 mm 2 m/S 655 mmHg 56%
    18:00 +9°C° 0 mm 2 m/S 654 mmHg 62%
    19:00 +8°C° 0 mm 3 m/S 654 mmHg 68%
    20:00 +7°C° 0 mm 3 m/S 654 mmHg 72%
    21:00 +7°C° 0 mm 3 m/S 654 mmHg 75%
    22:00 +5°C° 0 mm 3 m/S 654 mmHg 78%
    23:00 +5°C° 0 mm 3 m/S 654 mmHg 81%
    Mehr zeigen